Location: Mohawk View
(42.7837°N, 73.7885°W)
Time: 13:08:28
(UTC+00:00)

USA 238 - Pass Details

Date: 17 June 2021
Orbit: 989 x 1223 km, 63.4° (Epoch: 16 July)

Event Time Altitude Azimuth Distance (km) Brightness Sun altitude
Rises 01:15:16 0° 218° (SW) 3,699 6.5 -6.6°
Reaches altitude 10° 01:17:48 10° 219° (SW) 2,767 5.9 -6.9°
Maximum altitude 01:24:18 80° 306° (NW) 1,049 3.8 -7.8°
Drops below altitude 10° 01:31:11 10° 35° (NE) 2,912 6.1 -8.8°
Sets 01:33:55 0° 36° (NE) 3,906 6.8 -9.1°
